Tracking 32523 objects as of 13-Dec-2025
HD Live streaming from Space Station
objects crossing your sky now

STARLINK-34045

Track STARLINK-34045 now!
10-day predictions
STARLINK-34045 is classified as:


NORAD ID: 63979
Int'l Code: 2025-099AD
Perigee: 489.1 km
Apogee: 491.4 km
Inclination: 43.0 °
Period: 94.3 minutes
Semi major axis: 6861 km
RCS: Unknown
Launch date: May 13, 2025
Source: United States (US)
Launch site: AIR FORCE EASTERN TEST RANGE (AFETR)
Your satellite tracking list
Your tracking list is empty




NASA's NSSDC Master Catalog

Two Line Element Set (TLE):
1 63979U 25099AD  25346.24207346  .00033683  00000-0  12288-2 0  9993
2 63979  43.0014 306.4923 0001695 271.2257  88.8401 15.27557664 33915
Source of the keplerian elements: AFSPC